Location: Unspecified
(0.0000°N, 0.0000°E)
Time: 09:28:22
(UTC+00:00)

Courier 1B Rocket - Visible Passes

Search period start: 05 July 2015 00:00
Search period end: 15 July 2015 00:00
Orbit: 921 x 1202 km, 28.2° (Epoch: 04 July)

Date Brightness Start Highest point End Pass type
(mag) Time Alt. Az. Time Alt. Az. Time Alt. Az.
05 Jul 6.2 03:36:25 31° SE 03:36:25 31° SE 03:39:28 10° SE visible
05 Jul 6.2 05:22:52 12° WSW 05:26:51 20° SSW 05:31:10 10° SSE visible
05 Jul 8.0 18:49:13 10° NNW 18:50:55 11° NNW 18:52:20 10° N visible
06 Jul 5.8 04:26:33 29° SSW 04:26:33 29° SSW 04:31:05 10° SSE visible
07 Jul 7.2 03:30:06 13° SE 03:30:06 13° SE 03:30:43 10° SE visible
07 Jul 6.6 05:16:31 11° SW 05:18:37 13° SSW 05:21:09 10° S visible
08 Jul 6.7 04:19:55 15° S 04:19:55 15° S 04:21:42 10° SSE visible
10 Jul 7.7 21:22:41 10° N 21:24:02 12° N 21:24:02 12° N visible
11 Jul 7.9 22:12:50 10° NNW 22:12:53 10° NNW 22:12:53 10° NNW visible
12 Jul 7.4 21:12:22 10° NNW 21:15:24 16° N 21:15:24 16° N visible
13 Jul 7.4 20:12:22 10° N 20:15:31 13° NNE 20:17:56 11° NE visible
13 Jul 7.8 22:03:24 10° NW 22:04:17 13° NNW 22:04:17 13° NNW visible
14 Jul 7.0 21:02:42 10° NNW 21:06:51 23° N 21:06:51 23° N visible
